Current Weather Conditions: station 62132

sailwx.info

Wind from 110 at 18 knots

Air temperature 15.4° C
Dewpoint 13.8° C

Last reported at 2019-Sep-22 00:00 UTC.
Time now 2019-Sep-22 01:44 UTC

Location: N 56°24' E 002°00'.
View on Google Maps.

See reports from other nearby stations

  
Tides and Currents Weather Stations Pressure Air Temp Water Temp Dewpoint Dewpoint Depression Visibility Wind Speed Wind Dir Waves Ship Positions
date/time (UTC)wind fromknots sea level pressurealtimeterstation pressurevisibilityair tempwater tempwave heightnotes
2019-Sep-22 00:00 110 18 15.4
2019-Sep-21 23:00 120 13 15.4
2019-Sep-21 22:00 130 13 15.6
2019-Sep-21 21:00 110 18 15.4
2019-Sep-21 20:00 100 20 15.5
2019-Sep-21 19:00 100 19 15.4
2019-Sep-21 18:00 100 19 16.0
2019-Sep-21 17:00 100 18 17.4
2019-Sep-21 16:00 100 17 18.2
2019-Sep-21 15:00 110 15 18.0
2019-Sep-21 14:00 110 15 17.6
2019-Sep-21 13:00 120 13 17.0
2019-Sep-21 12:00 130 13 16.6
2019-Sep-21 11:00 140 13 15.3
2019-Sep-21 10:00 150 14 14.8
2019-Sep-21 09:00 140 13 15.0
2019-Sep-21 08:00 150 13 14.6
2019-Sep-21 07:00 140 9 14.6
2019-Sep-21 06:00 140 8 14.5
2019-Sep-21 05:00 150 7 14.4
2019-Sep-21 04:00 160 6 14.3
2019-Sep-21 03:00 180 6 14.4
2019-Sep-21 02:00 170 6 14.4
2019-Sep-21 01:00 180 6 14.5
2019-Sep-21 00:00 190 6 14.5
2019-Sep-20 23:00 190 6 14.5
2019-Sep-20 22:00 190 6 14.5
2019-Sep-20 21:00 180 7 14.6
2019-Sep-20 20:00 170 6 14.5
2019-Sep-20 19:00 160 5 14.8
2019-Sep-20 18:00 170 4 15.0
2019-Sep-20 17:00 200 4 15.0
2019-Sep-20 16:00 200 5 14.9
2019-Sep-20 15:00 200 5 15.2
2019-Sep-20 14:00 200 4 15.0
2019-Sep-20 13:00 210 4 14.8
2019-Sep-20 12:00 220 4 14.7
2019-Sep-20 11:00 200 5 14.4
2019-Sep-20 10:00 190 5 14.5
2019-Sep-20 09:00 180 5 14.5
2019-Sep-20 08:00 170 4 14.4
2019-Sep-20 07:00 190 4 14.4
2019-Sep-20 06:00 190 2 14.2
2019-Sep-20 05:00 200 2 14.2
2019-Sep-20 04:00 220 2 14.0
2019-Sep-20 03:00 230 1 14.0
2019-Sep-20 02:00 260 4 14.0
2019-Sep-20 01:00 260 6 14.0